Time,TemperatureF,DewpointF,PressureIn,WindDirection,WindDirectionDegrees,WindSpeedMPH,WindSpeedGustMPH,Humidity,HourlyPrecipIn,Conditions,Clouds,dailyrainin,SoftwareType,DateUTC
2013-07-21 00:01:00,66.0,60.0,29.96,WNW,292,1.0,5.0,81,0.00,,,0.00,Rainwise IP-100,2013-07-21 04:01:00,
2013-07-21 00:06:00,66.0,59.0,29.96,South,180,0.0,3.0,80,0.00,,,0.00,Rainwise IP-100,2013-07-21 04:06:00,
2013-07-21 00:11:00,66.0,60.0,29.96,South,180,0.0,2.0,83,0.00,,,0.00,Rainwise IP-100,2013-07-21 04:11:00,
2013-07-21 00:16:00,65.0,58.0,29.96,South,180,0.0,0.0,79,0.00,,,0.00,Rainwise IP-100,2013-07-21 04:16:00,
2013-07-21 00:21:00,65.0,59.0,29.96,South,180,0.0,0.0,80,0.00,,,0.00,Rainwise IP-100,2013-07-21 04:21:00,
2013-07-21 00:26:00,65.0,59.0,29.96,South,180,0.0,0.0,80,0.00,,,0.00,Rainwise IP-100,2013-07-21 04:26:00,
2013-07-21 00:31:00,66.0,59.0,29.96,South,180,4.0,4.0,78,0.00,,,0.00,Rainwise IP-100,2013-07-21 04:31:00,
2013-07-21 00:36:00,66.0,60.0,29.96,South,180,4.0,5.0,82,0.00,,,0.00,Rainwise IP-100,2013-07-21 04:36:00,
2013-07-21 00:41:00,66.0,62.0,29.96,South,180,3.0,4.0,87,0.00,,,0.00,Rainwise IP-100,2013-07-21 04:41:00,
2013-07-21 00:46:00,65.0,60.0,29.96,South,180,1.0,4.0,86,0.00,,,0.00,Rainwise IP-100,2013-07-21 04:46:00,
2013-07-21 00:51:00,65.0,61.0,29.98,South,180,0.0,3.0,87,0.00,,,0.00,Rainwise IP-100,2013-07-21 04:51:00,
2013-07-21 00:56:00,65.0,61.0,29.98,South,180,4.0,4.0,87,0.00,,,0.00,Rainwise IP-100,2013-07-21 04:56:00,
2013-07-21 01:01:00,65.0,60.0,29.98,SSE,157,5.0,5.0,86,0.00,,,0.00,Rainwise IP-100,2013-07-21 05:01:00,
2013-07-21 01:06:00,65.0,60.0,29.98,SSE,157,2.0,6.0,86,0.00,,,0.00,Rainwise IP-100,2013-07-21 05:06:00,
2013-07-21 01:11:00,65.0,59.0,29.98,South,180,4.0,6.0,83,0.00,,,0.00,Rainwise IP-100,2013-07-21 05:11:00,
2013-07-21 01:16:00,65.0,60.0,29.98,SSE,157,5.0,6.0,84,0.00,,,0.00,Rainwise IP-100,2013-07-21 05:16:00,
2013-07-21 01:21:00,65.0,60.0,29.98,SSE,157,2.0,6.0,84,0.00,,,0.00,Rainwise IP-100,2013-07-21 05:21:00,
2013-07-21 01:26:00,64.0,59.0,29.98,SSE,157,1.0,3.0,83,0.00,,,0.00,Rainwise IP-100,2013-07-21 05:26:00,
2013-07-21 01:31:00,64.0,58.0,29.98,SSE,157,4.0,5.0,82,0.00,,,0.00,Rainwise IP-100,2013-07-21 05:31:00,
2013-07-21 01:36:00,64.0,59.0,29.98,SSE,157,5.0,6.0,84,0.00,,,0.00,Rainwise IP-100,2013-07-21 05:36:00,
2013-07-21 01:41:00,64.0,59.0,29.98,SE,135,5.0,6.0,85,0.00,,,0.00,Rainwise IP-100,2013-07-21 05:41:00,
2013-07-21 01:46:00,64.0,59.0,29.98,SSE,157,3.0,6.0,85,0.00,,,0.00,Rainwise IP-100,2013-07-21 05:46:00,
2013-07-21 01:51:00,64.0,60.0,29.99,NW,315,6.0,6.0,89,0.00,,,0.00,Rainwise IP-100,2013-07-21 05:51:00,
2013-07-21 01:56:00,63.0,59.0,29.99,SW,225,2.0,6.0,88,0.00,,,0.00,Rainwise IP-100,2013-07-21 05:56:00,
2013-07-21 02:01:00,64.0,59.0,29.98,South,180,4.0,5.0,85,0.00,,,0.00,Rainwise IP-100,2013-07-21 06:01:00,
2013-07-21 02:06:00,64.0,60.0,29.98,South,180,0.0,5.0,88,0.00,,,0.00,Rainwise IP-100,2013-07-21 06:06:00,
2013-07-21 02:11:00,64.0,60.0,29.98,South,180,2.0,3.0,87,0.00,,,0.00,Rainwise IP-100,2013-07-21 06:11:00,
2013-07-21 02:16:00,64.0,60.0,29.98,SSE,157,1.0,6.0,88,0.00,,,0.00,Rainwise IP-100,2013-07-21 06:16:00,
2013-07-21 02:21:00,63.0,60.0,29.99,SSW,202,3.0,6.0,89,0.00,,,0.00,Rainwise IP-100,2013-07-21 06:21:00,
2013-07-21 02:26:00,63.0,59.0,29.99,South,180,3.0,6.0,88,0.00,,,0.00,Rainwise IP-100,2013-07-21 06:26:00,
2013-07-21 02:31:00,63.0,60.0,30.00,SE,135,5.0,7.0,91,0.00,,,0.00,Rainwise IP-100,2013-07-21 06:31:00,
2013-07-21 02:36:00,63.0,60.0,30.00,SE,135,5.0,6.0,89,0.00,,,0.00,Rainwise IP-100,2013-07-21 06:36:00,
2013-07-21 02:41:00,63.0,59.0,30.00,SE,135,4.0,7.0,86,0.00,,,0.00,Rainwise IP-100,2013-07-21 06:41:00,
2013-07-21 02:46:00,63.0,59.0,30.00,SSW,202,2.0,5.0,88,0.00,,,0.00,Rainwise IP-100,2013-07-21 06:46:00,
2013-07-21 02:51:00,63.0,60.0,30.00,SSW,202,0.0,3.0,90,0.00,,,0.00,Rainwise IP-100,2013-07-21 06:51:00,
2013-07-21 02:56:00,62.0,59.0,30.00,SSW,202,0.0,0.0,91,0.00,,,0.00,Rainwise IP-100,2013-07-21 06:56:00,
2013-07-21 03:01:00,62.0,59.0,30.01,SE,135,6.0,6.0,89,0.00,,,0.00,Rainwise IP-100,2013-07-21 07:01:00,
2013-07-21 03:06:00,62.0,59.0,30.01,South,180,0.0,7.0,90,0.00,,,0.00,Rainwise IP-100,2013-07-21 07:06:00,
2013-07-21 03:11:00,62.0,60.0,30.01,South,180,5.0,6.0,93,0.00,,,0.00,Rainwise IP-100,2013-07-21 07:11:00,
2013-07-21 03:16:00,62.0,60.0,30.01,SSE,157,6.0,6.0,93,0.00,,,0.00,Rainwise IP-100,2013-07-21 07:16:00,
2013-07-21 03:21:00,61.0,59.0,30.01,SSE,157,5.0,6.0,92,0.00,,,0.00,Rainwise IP-100,2013-07-21 07:21:00,
2013-07-21 03:26:00,61.0,59.0,30.01,SE,135,6.0,6.0,92,0.00,,,0.00,Rainwise IP-100,2013-07-21 07:26:00,
2013-07-21 03:31:00,61.0,58.0,30.01,SE,135,0.0,7.0,91,0.00,,,0.00,Rainwise IP-100,2013-07-21 07:31:00,
2013-07-21 03:36:00,61.0,59.0,30.01,SE,135,3.0,3.0,93,0.00,,,0.00,Rainwise IP-100,2013-07-21 07:36:00,
2013-07-21 03:41:00,61.0,59.0,30.02,NW,315,1.0,6.0,94,0.00,,,0.00,Rainwise IP-100,2013-07-21 07:41:00,
2013-07-21 03:46:00,61.0,59.0,30.02,SW,225,2.0,4.0,95,0.00,,,0.00,Rainwise IP-100,2013-07-21 07:46:00,
2013-07-21 03:51:00,61.0,60.0,30.02,SW,225,3.0,4.0,96,0.00,,,0.00,Rainwise IP-100,2013-07-21 07:51:00,
2013-07-21 03:56:00,61.0,59.0,30.02,SW,225,0.0,3.0,95,0.00,,,0.00,Rainwise IP-100,2013-07-21 07:56:00,
2013-07-21 04:01:00,61.0,60.0,30.03,SW,225,0.0,2.0,96,0.00,,,0.00,Rainwise IP-100,2013-07-21 08:01:00,
2013-07-21 04:06:00,61.0,59.0,30.03,SW,225,0.0,2.0,95,0.00,,,0.00,Rainwise IP-100,2013-07-21 08:06:00,
2013-07-21 04:11:00,61.0,59.0,30.03,SSE,157,6.0,0.0,95,0.00,,,0.00,Rainwise IP-100,2013-07-21 08:11:00,
2013-07-21 04:16:00,62.0,60.0,30.03,South,180,3.0,7.0,92,0.00,,,0.00,Rainwise IP-100,2013-07-21 08:16:00,
2013-07-21 04:21:00,62.0,60.0,30.02,SE,135,3.0,8.0,92,0.00,,,0.00,Rainwise IP-100,2013-07-21 08:21:00,
2013-07-21 04:26:00,61.0,59.0,30.02,SSE,157,5.0,7.0,94,0.00,,,0.00,Rainwise IP-100,2013-07-21 08:26:00,
2013-07-21 04:31:00,62.0,59.0,30.03,SE,135,3.0,7.0,90,0.00,,,0.00,Rainwise IP-100,2013-07-21 08:31:00,
2013-07-21 04:36:00,62.0,60.0,30.03,SE,135,0.0,5.0,92,0.00,,,0.00,Rainwise IP-100,2013-07-21 08:36:00,
2013-07-21 04:41:00,61.0,59.0,30.02,SE,135,0.0,2.0,94,0.00,,,0.00,Rainwise IP-100,2013-07-21 08:41:00,
2013-07-21 04:46:00,61.0,60.0,30.02,SE,135,0.0,2.0,96,0.00,,,0.00,Rainwise IP-100,2013-07-21 08:46:00,
2013-07-21 04:51:00,60.0,59.0,30.03,SE,135,0.0,1.0,97,0.00,,,0.00,Rainwise IP-100,2013-07-21 08:51:00,
2013-07-21 04:56:00,60.0,59.0,30.03,SE,135,0.0,0.0,98,0.00,,,0.00,Rainwise IP-100,2013-07-21 08:56:00,
2013-07-21 05:01:00,60.0,59.0,30.04,SE,135,1.0,1.0,98,0.00,,,0.00,Rainwise IP-100,2013-07-21 09:01:00,
2013-07-21 05:06:00,60.0,59.0,30.04,SE,135,1.0,2.0,98,0.00,,,0.00,Rainwise IP-100,2013-07-21 09:06:00,
2013-07-21 05:11:00,60.0,59.0,30.05,ESE,112,0.0,3.0,98,0.00,,,0.00,Rainwise IP-100,2013-07-21 09:11:00,
2013-07-21 05:16:00,60.0,59.0,30.05,East,90,2.0,3.0,98,0.00,,,0.00,Rainwise IP-100,2013-07-21 09:16:00,
2013-07-21 05:21:00,59.0,58.0,30.05,East,90,1.0,3.0,98,0.00,,,0.00,Rainwise IP-100,2013-07-21 09:21:00,
2013-07-21 05:26:00,59.0,58.0,30.05,East,90,1.0,3.0,98,0.00,,,0.00,Rainwise IP-100,2013-07-21 09:26:00,
2013-07-21 05:31:00,59.0,58.0,30.06,East,90,1.0,2.0,98,0.00,,,0.00,Rainwise IP-100,2013-07-21 09:31:00,
2013-07-21 05:36:00,59.0,58.0,30.06,East,90,1.0,2.0,98,0.00,,,0.00,Rainwise IP-100,2013-07-21 09:36:00,
2013-07-21 05:41:00,59.0,58.0,30.06,East,90,2.0,3.0,98,0.00,,,0.00,Rainwise IP-100,2013-07-21 09:41:00,
2013-07-21 05:46:00,59.0,58.0,30.06,NE,45,1.0,3.0,98,0.00,,,0.00,Rainwise IP-100,2013-07-21 09:46:00,
2013-07-21 05:51:00,59.0,58.0,30.06,NE,45,3.0,4.0,98,0.00,,,0.00,Rainwise IP-100,2013-07-21 09:51:00,
2013-07-21 05:56:00,59.0,58.0,30.06,NE,45,3.0,4.0,98,0.00,,,0.00,Rainwise IP-100,2013-07-21 09:56:00,
2013-07-21 06:01:00,59.0,58.0,30.06,NE,45,2.0,7.0,97,0.00,,,0.00,Rainwise IP-100,2013-07-21 10:01:00,
2013-07-21 06:06:00,59.0,58.0,30.06,NE,45,3.0,5.0,97,0.00,,,0.00,Rainwise IP-100,2013-07-21 10:06:00,
2013-07-21 06:11:00,60.0,59.0,30.06,NE,45,4.0,5.0,96,0.00,,,0.00,Rainwise IP-100,2013-07-21 10:11:00,
2013-07-21 06:16:00,60.0,59.0,30.06,NE,45,3.0,6.0,96,0.00,,,0.00,Rainwise IP-100,2013-07-21 10:16:00,
2013-07-21 06:21:00,59.0,57.0,30.06,NE,45,1.0,4.0,96,0.00,,,0.00,Rainwise IP-100,2013-07-21 10:21:00,
2013-07-21 06:26:00,59.0,57.0,30.06,NE,45,1.0,4.0,94,0.00,,,0.00,Rainwise IP-100,2013-07-21 10:26:00,
2013-07-21 06:31:00,60.0,57.0,30.07,NE,45,1.0,3.0,93,0.00,,,0.00,Rainwise IP-100,2013-07-21 10:31:00,
2013-07-21 06:36:00,60.0,57.0,30.07,NE,45,1.0,5.0,93,0.00,,,0.00,Rainwise IP-100,2013-07-21 10:36:00,
2013-07-21 06:41:00,60.0,57.0,30.08,NE,45,0.0,4.0,92,0.00,,,0.00,Rainwise IP-100,2013-07-21 10:41:00,
2013-07-21 06:46:00,60.0,57.0,30.08,NE,45,1.0,7.0,90,0.00,,,0.00,Rainwise IP-100,2013-07-21 10:46:00,
2013-07-21 06:51:00,60.0,56.0,30.07,NE,45,2.0,6.0,88,0.00,,,0.00,Rainwise IP-100,2013-07-21 10:51:00,
2013-07-21 06:56:00,60.0,56.0,30.07,NE,45,3.0,5.0,89,0.00,,,0.00,Rainwise IP-100,2013-07-21 10:56:00,
2013-07-21 07:01:00,60.0,56.0,30.08,East,90,2.0,5.0,88,0.00,,,0.00,Rainwise IP-100,2013-07-21 11:01:00,
2013-07-21 07:06:00,61.0,56.0,30.08,ENE,67,3.0,6.0,86,0.00,,,0.00,Rainwise IP-100,2013-07-21 11:06:00,
2013-07-21 07:11:00,61.0,57.0,30.09,ENE,67,2.0,4.0,87,0.00,,,0.00,Rainwise IP-100,2013-07-21 11:11:00,
2013-07-21 07:16:00,61.0,56.0,30.09,ENE,67,3.0,5.0,86,0.00,,,0.00,Rainwise IP-100,2013-07-21 11:16:00,
2013-07-21 07:21:00,61.0,57.0,30.09,ENE,67,3.0,4.0,87,0.00,,,0.00,Rainwise IP-100,2013-07-21 11:21:00,
2013-07-21 07:26:00,61.0,56.0,30.09,NE,45,2.0,6.0,84,0.00,,,0.00,Rainwise IP-100,2013-07-21 11:26:00,
2013-07-21 07:31:00,62.0,57.0,30.09,North,360,0.0,4.0,84,0.00,,,0.00,Rainwise IP-100,2013-07-21 11:31:00,
2013-07-21 07:36:00,63.0,57.0,30.09,NNE,22,2.0,2.0,83,0.00,,,0.00,Rainwise IP-100,2013-07-21 11:36:00,
2013-07-21 07:41:00,64.0,56.0,30.09,NNE,22,0.0,3.0,77,0.00,,,0.00,Rainwise IP-100,2013-07-21 11:41:00,
2013-07-21 07:46:00,64.0,56.0,30.09,NE,45,0.0,3.0,76,0.00,,,0.00,Rainwise IP-100,2013-07-21 11:46:00,
2013-07-21 07:51:00,65.0,56.0,30.08,NE,45,1.0,3.0,74,0.00,,,0.00,Rainwise IP-100,2013-07-21 11:51:00,
2013-07-21 07:56:00,65.0,56.0,30.08,North,360,2.0,6.0,73,0.00,,,0.00,Rainwise IP-100,2013-07-21 11:56:00,
2013-07-21 08:01:00,65.0,56.0,30.09,North,360,0.0,0.0,72,0.00,,,0.00,Rainwise IP-100,2013-07-21 12:01:00,
2013-07-21 08:06:00,65.0,56.0,30.09,North,360,3.0,3.0,74,0.00,,,0.00,Rainwise IP-100,2013-07-21 12:06:00,
2013-07-21 08:11:00,64.0,55.0,30.09,North,360,0.0,4.0,73,0.00,,,0.00,Rainwise IP-100,2013-07-21 12:11:00,
2013-07-21 08:16:00,64.0,55.0,30.09,NE,45,1.0,4.0,74,0.00,,,0.00,Rainwise IP-100,2013-07-21 12:16:00,
2013-07-21 08:21:00,64.0,56.0,30.09,NE,45,2.0,5.0,75,0.00,,,0.00,Rainwise IP-100,2013-07-21 12:21:00,
2013-07-21 08:26:00,65.0,56.0,30.09,NE,45,1.0,3.0,73,0.00,,,0.00,Rainwise IP-100,2013-07-21 12:26:00,
2013-07-21 08:31:00,65.0,56.0,30.09,NE,45,2.0,5.0,72,0.00,,,0.00,Rainwise IP-100,2013-07-21 12:31:00,
2013-07-21 08:36:00,66.0,56.0,30.09,NNE,22,1.0,4.0,72,0.00,,,0.00,Rainwise IP-100,2013-07-21 12:36:00,
2013-07-21 08:41:00,66.0,55.0,30.09,NE,45,1.0,5.0,69,0.00,,,0.00,Rainwise IP-100,2013-07-21 12:41:00,
2013-07-21 08:46:00,66.0,55.0,30.09,North,360,1.0,4.0,69,0.00,,,0.00,Rainwise IP-100,2013-07-21 12:46:00,
2013-07-21 08:51:00,66.0,56.0,30.09,North,360,0.0,3.0,71,0.00,,,0.00,Rainwise IP-100,2013-07-21 12:51:00,
2013-07-21 08:56:00,66.0,56.0,30.09,NE,45,2.0,2.0,70,0.00,,,0.00,Rainwise IP-100,2013-07-21 12:56:00,
2013-07-21 09:01:00,66.0,56.0,30.09,NE,45,1.0,3.0,70,0.00,,,0.00,Rainwise IP-100,2013-07-21 13:01:00,
2013-07-21 09:06:00,66.0,56.0,30.09,NE,45,0.0,3.0,70,0.00,,,0.00,Rainwise IP-100,2013-07-21 13:06:00,
2013-07-21 09:11:00,66.0,56.0,30.10,North,360,2.0,6.0,70,0.00,,,0.00,Rainwise IP-100,2013-07-21 13:11:00,
2013-07-21 09:16:00,67.0,56.0,30.10,NE,45,2.0,4.0,69,0.00,,,0.00,Rainwise IP-100,2013-07-21 13:16:00,
2013-07-21 09:21:00,68.0,56.0,30.09,North,360,1.0,4.0,67,0.00,,,0.00,Rainwise IP-100,2013-07-21 13:21:00,
2013-07-21 09:26:00,68.0,56.0,30.09,NE,45,0.0,5.0,66,0.00,,,0.00,Rainwise IP-100,2013-07-21 13:26:00,
2013-07-21 09:31:00,69.0,57.0,30.09,NE,45,0.0,3.0,66,0.00,,,0.00,Rainwise IP-100,2013-07-21 13:31:00,
2013-07-21 09:36:00,68.0,56.0,30.09,East,90,3.0,6.0,66,0.00,,,0.00,Rainwise IP-100,2013-07-21 13:36:00,
2013-07-21 09:41:00,68.0,56.0,30.09,East,90,1.0,4.0,67,0.00,,,0.00,Rainwise IP-100,2013-07-21 13:41:00,
2013-07-21 09:46:00,68.0,57.0,30.09,East,90,4.0,4.0,68,0.00,,,0.00,Rainwise IP-100,2013-07-21 13:46:00,
2013-07-21 09:51:00,68.0,57.0,30.09,North,360,5.0,6.0,68,0.00,,,0.00,Rainwise IP-100,2013-07-21 13:51:00,
2013-07-21 09:56:00,69.0,59.0,30.09,NE,45,2.0,6.0,70,0.00,,,0.00,Rainwise IP-100,2013-07-21 13:56:00,
2013-07-21 10:01:00,68.0,57.0,30.09,East,90,2.0,6.0,68,0.00,,,0.00,Rainwise IP-100,2013-07-21 14:01:00,
2013-07-21 10:06:00,67.0,57.0,30.09,South,180,2.0,6.0,72,0.00,,,0.00,Rainwise IP-100,2013-07-21 14:06:00,
2013-07-21 10:11:00,68.0,58.0,30.10,North,360,2.0,6.0,71,0.00,,,0.00,Rainwise IP-100,2013-07-21 14:11:00,
2013-07-21 10:16:00,70.0,60.0,30.10,North,360,0.0,4.0,71,0.00,,,0.00,Rainwise IP-100,2013-07-21 14:16:00,
2013-07-21 10:21:00,70.0,59.0,30.09,ENE,67,3.0,4.0,67,0.00,,,0.00,Rainwise IP-100,2013-07-21 14:21:00,
2013-07-21 10:26:00,70.0,57.0,30.09,NE,45,2.0,5.0,63,0.00,,,0.00,Rainwise IP-100,2013-07-21 14:26:00,
2013-07-21 10:31:00,71.0,59.0,30.10,North,360,2.0,4.0,67,0.00,,,0.00,Rainwise IP-100,2013-07-21 14:31:00,
2013-07-21 10:36:00,72.0,59.0,30.10,NE,45,1.0,3.0,65,0.00,,,0.00,Rainwise IP-100,2013-07-21 14:36:00,
2013-07-21 10:41:00,72.0,59.0,30.08,NE,45,0.0,4.0,63,0.00,,,0.00,Rainwise IP-100,2013-07-21 14:41:00,
2013-07-21 10:46:00,73.0,57.0,30.08,NE,45,1.0,3.0,59,0.00,,,0.00,Rainwise IP-100,2013-07-21 14:46:00,
2013-07-21 10:51:00,71.0,56.0,30.09,ESE,112,3.0,3.0,60,0.00,,,0.00,Rainwise IP-100,2013-07-21 14:51:00,
2013-07-21 10:56:00,72.0,59.0,30.09,NNW,337,0.0,6.0,63,0.00,,,0.00,Rainwise IP-100,2013-07-21 14:56:00,
2013-07-21 11:01:00,70.0,57.0,30.10,East,90,4.0,4.0,64,0.00,,,0.00,Rainwise IP-100,2013-07-21 15:01:00,
2013-07-21 11:06:00,72.0,59.0,30.10,NE,45,1.0,6.0,63,0.00,,,0.00,Rainwise IP-100,2013-07-21 15:06:00,
2013-07-21 11:11:00,70.0,57.0,30.09,SE,135,2.0,4.0,65,0.00,,,0.00,Rainwise IP-100,2013-07-21 15:11:00,
2013-07-21 11:16:00,71.0,58.0,30.09,East,90,1.0,5.0,65,0.00,,,0.00,Rainwise IP-100,2013-07-21 15:16:00,
2013-07-21 11:21:00,70.0,59.0,30.09,East,90,2.0,4.0,68,0.00,,,0.00,Rainwise IP-100,2013-07-21 15:21:00,
2013-07-21 11:26:00,71.0,59.0,30.09,ENE,67,1.0,4.0,66,0.00,,,0.00,Rainwise IP-100,2013-07-21 15:26:00,
2013-07-21 11:31:00,71.0,59.0,30.09,ENE,67,0.0,4.0,66,0.00,,,0.00,Rainwise IP-100,2013-07-21 15:31:00,
2013-07-21 11:36:00,71.0,57.0,30.09,East,90,0.0,4.0,62,0.00,,,0.00,Rainwise IP-100,2013-07-21 15:36:00,
2013-07-21 11:41:00,71.0,57.0,30.09,East,90,3.0,3.0,63,0.00,,,0.00,Rainwise IP-100,2013-07-21 15:41:00,
2013-07-21 11:46:00,71.0,59.0,30.09,East,90,2.0,6.0,66,0.00,,,0.00,Rainwise IP-100,2013-07-21 15:46:00,
2013-07-21 11:51:00,72.0,57.0,30.09,ENE,67,1.0,6.0,60,0.00,,,0.00,Rainwise IP-100,2013-07-21 15:51:00,
2013-07-21 11:56:00,73.0,58.0,30.09,NNE,22,0.0,3.0,60,0.00,,,0.00,Rainwise IP-100,2013-07-21 15:56:00,
2013-07-21 12:01:00,73.0,57.0,30.08,NE,45,1.0,3.0,58,0.00,,,0.00,Rainwise IP-100,2013-07-21 16:01:00,
2013-07-21 12:06:00,74.0,57.0,30.08,North,360,0.0,5.0,57,0.00,,,0.00,Rainwise IP-100,2013-07-21 16:06:00,
2013-07-21 12:11:00,73.0,58.0,30.07,ENE,67,3.0,8.0,60,0.00,,,0.00,Rainwise IP-100,2013-07-21 16:11:00,
2013-07-21 12:16:00,73.0,58.0,30.07,ENE,67,2.0,7.0,60,0.00,,,0.00,Rainwise IP-100,2013-07-21 16:16:00,
2013-07-21 12:21:00,73.0,59.0,30.08,ESE,112,1.0,5.0,62,0.00,,,0.00,Rainwise IP-100,2013-07-21 16:21:00,
2013-07-21 12:26:00,73.0,57.0,30.08,NNW,337,8.0,8.0,59,0.00,,,0.00,Rainwise IP-100,2013-07-21 16:26:00,
2013-07-21 12:31:00,73.0,56.0,30.08,NW,315,3.0,9.0,55,0.00,,,0.00,Rainwise IP-100,2013-07-21 16:31:00,
2013-07-21 12:36:00,72.0,59.0,30.08,North,360,6.0,0.0,64,0.00,,,0.00,Rainwise IP-100,2013-07-21 16:36:00,
2013-07-21 12:41:00,73.0,58.0,30.09,NW,315,6.0,0.0,60,0.00,,,0.00,Rainwise IP-100,2013-07-21 16:41:00,
2013-07-21 12:46:00,73.0,60.0,30.09,North,360,2.0,7.0,63,0.00,,,0.00,Rainwise IP-100,2013-07-21 16:46:00,
2013-07-21 12:51:00,74.0,58.0,30.09,NE,45,2.0,7.0,58,0.00,,,0.00,Rainwise IP-100,2013-07-21 16:51:00,
2013-07-21 12:56:00,75.0,59.0,30.09,North,360,5.0,6.0,57,0.00,,,0.00,Rainwise IP-100,2013-07-21 16:56:00,
2013-07-21 13:01:00,73.0,57.0,30.08,ENE,67,2.0,0.0,59,0.00,,,0.00,Rainwise IP-100,2013-07-21 17:01:00,
2013-07-21 13:06:00,74.0,58.0,30.08,NE,45,2.0,6.0,58,0.00,,,0.00,Rainwise IP-100,2013-07-21 17:06:00,
2013-07-21 13:11:00,75.0,59.0,30.07,NE,45,0.0,5.0,57,0.00,,,0.00,Rainwise IP-100,2013-07-21 17:11:00,
2013-07-21 13:16:00,75.0,58.0,30.07,NE,45,2.0,4.0,56,0.00,,,0.00,Rainwise IP-100,2013-07-21 17:16:00,
2013-07-21 13:21:00,74.0,57.0,30.07,East,90,3.0,4.0,57,0.00,,,0.00,Rainwise IP-100,2013-07-21 17:21:00,
2013-07-21 13:26:00,74.0,57.0,30.07,NE,45,1.0,6.0,57,0.00,,,0.00,Rainwise IP-100,2013-07-21 17:26:00,
2013-07-21 13:31:00,74.0,58.0,30.07,North,360,4.0,6.0,58,0.00,,,0.00,Rainwise IP-100,2013-07-21 17:31:00,
2013-07-21 13:36:00,73.0,58.0,30.07,North,360,9.0,0.0,60,0.00,,,0.00,Rainwise IP-100,2013-07-21 17:36:00,
2013-07-21 13:41:00,72.0,57.0,30.09,NNW,337,5.0,5.0,60,0.00,,,0.00,Rainwise IP-100,2013-07-21 17:41:00,
2013-07-21 13:46:00,73.0,56.0,30.09,North,360,3.0,8.0,56,0.00,,,0.00,Rainwise IP-100,2013-07-21 17:46:00,
2013-07-21 13:51:00,72.0,56.0,30.07,NW,315,8.0,8.0,57,0.00,,,0.00,Rainwise IP-100,2013-07-21 17:51:00,
2013-07-21 13:56:00,72.0,56.0,30.07,North,360,6.0,6.0,57,0.00,,,0.00,Rainwise IP-100,2013-07-21 17:56:00,
2013-07-21 14:01:00,72.0,55.0,30.09,North,360,4.0,4.0,56,0.00,,,0.00,Rainwise IP-100,2013-07-21 18:01:00,
2013-07-21 14:06:00,73.0,57.0,30.09,NNW,337,5.0,9.0,57,0.00,,,0.00,Rainwise IP-100,2013-07-21 18:06:00,
2013-07-21 14:11:00,73.0,57.0,30.07,North,360,1.0,0.0,58,0.00,,,0.00,Rainwise IP-100,2013-07-21 18:11:00,
2013-07-21 14:16:00,75.0,57.0,30.07,NE,45,3.0,7.0,53,0.00,,,0.00,Rainwise IP-100,2013-07-21 18:16:00,
2013-07-21 14:21:00,75.0,57.0,30.07,WNW,292,2.0,6.0,55,0.00,,,0.00,Rainwise IP-100,2013-07-21 18:21:00,
2013-07-21 14:26:00,76.0,57.0,30.07,NE,45,0.0,8.0,52,0.00,,,0.00,Rainwise IP-100,2013-07-21 18:26:00,
2013-07-21 14:31:00,75.0,56.0,30.07,NE,45,1.0,0.0,51,0.00,,,0.00,Rainwise IP-100,2013-07-21 18:31:00,
2013-07-21 14:36:00,76.0,59.0,30.07,North,360,6.0,7.0,55,0.00,,,0.00,Rainwise IP-100,2013-07-21 18:36:00,
2013-07-21 14:41:00,76.0,57.0,30.07,North,360,4.0,7.0,53,0.00,,,0.00,Rainwise IP-100,2013-07-21 18:41:00,
2013-07-21 14:46:00,77.0,57.0,30.07,NE,45,2.0,7.0,50,0.00,,,0.00,Rainwise IP-100,2013-07-21 18:46:00,
2013-07-21 14:51:00,77.0,57.0,30.06,NE,45,3.0,6.0,51,0.00,,,0.00,Rainwise IP-100,2013-07-21 18:51:00,
2013-07-21 14:56:00,77.0,56.0,30.06,NE,45,2.0,6.0,49,0.00,,,0.00,Rainwise IP-100,2013-07-21 18:56:00,
2013-07-21 15:01:00,76.0,57.0,30.06,East,90,3.0,6.0,53,0.00,,,0.00,Rainwise IP-100,2013-07-21 19:01:00,
2013-07-21 15:06:00,77.0,57.0,30.06,NE,45,0.0,6.0,50,0.00,,,0.00,Rainwise IP-100,2013-07-21 19:06:00,
2013-07-21 15:11:00,77.0,58.0,30.06,East,90,3.0,0.0,52,0.00,,,0.00,Rainwise IP-100,2013-07-21 19:11:00,
2013-07-21 15:16:00,77.0,56.0,30.06,ENE,67,4.0,6.0,49,0.00,,,0.00,Rainwise IP-100,2013-07-21 19:16:00,
2013-07-21 15:21:00,79.0,59.0,30.06,ENE,67,2.0,7.0,51,0.00,,,0.00,Rainwise IP-100,2013-07-21 19:21:00,
2013-07-21 15:26:00,79.0,56.0,30.06,NE,45,1.0,7.0,46,0.00,,,0.00,Rainwise IP-100,2013-07-21 19:26:00,
2013-07-21 15:31:00,80.0,59.0,30.05,NE,45,1.0,6.0,49,0.00,,,0.00,Rainwise IP-100,2013-07-21 19:31:00,
2013-07-21 15:36:00,77.0,54.0,30.05,NE,45,6.0,7.0,45,0.00,,,0.00,Rainwise IP-100,2013-07-21 19:36:00,
2013-07-21 15:41:00,77.0,53.0,30.07,ENE,67,3.0,7.0,43,0.00,,,0.00,Rainwise IP-100,2013-07-21 19:41:00,
2013-07-21 15:46:00,75.0,55.0,30.07,NNW,337,0.0,9.0,50,0.00,,,0.00,Rainwise IP-100,2013-07-21 19:46:00,
2013-07-21 15:51:00,76.0,54.0,30.08,NW,315,5.0,5.0,47,0.00,,,0.00,Rainwise IP-100,2013-07-21 19:51:00,
2013-07-21 15:56:00,75.0,54.0,30.08,NNW,337,0.0,3.0,48,0.00,,,0.00,Rainwise IP-100,2013-07-21 19:56:00,
2013-07-21 16:01:00,74.0,54.0,30.09,North,360,9.0,9.0,49,0.00,,,0.00,Rainwise IP-100,2013-07-21 20:01:00,
2013-07-21 16:06:00,74.0,55.0,30.09,North,360,2.0,0.0,52,0.00,,,0.00,Rainwise IP-100,2013-07-21 20:06:00,
2013-07-21 16:11:00,76.0,54.0,30.07,North,360,1.0,5.0,47,0.00,,,0.00,Rainwise IP-100,2013-07-21 20:11:00,
2013-07-21 16:16:00,77.0,57.0,30.07,North,360,3.0,6.0,50,0.00,,,0.00,Rainwise IP-100,2013-07-21 20:16:00,
2013-07-21 16:21:00,77.0,56.0,30.06,North,360,1.0,6.0,48,0.00,,,0.00,Rainwise IP-100,2013-07-21 20:21:00,
2013-07-21 16:26:00,76.0,53.0,30.06,NW,315,2.0,9.0,45,0.00,,,0.00,Rainwise IP-100,2013-07-21 20:26:00,
2013-07-21 16:31:00,75.0,53.0,30.06,WNW,292,6.0,8.0,47,0.00,,,0.00,Rainwise IP-100,2013-07-21 20:31:00,
2013-07-21 16:36:00,74.0,53.0,30.06,NNW,337,6.0,0.0,48,0.00,,,0.00,Rainwise IP-100,2013-07-21 20:36:00,
2013-07-21 16:41:00,74.0,53.0,30.07,NNW,337,3.0,7.0,47,0.00,,,0.00,Rainwise IP-100,2013-07-21 20:41:00,
2013-07-21 16:46:00,74.0,52.0,30.07,NNW,337,7.0,7.0,46,0.00,,,0.00,Rainwise IP-100,2013-07-21 20:46:00,
2013-07-21 16:51:00,74.0,53.0,30.06,NW,315,8.0,0.0,47,0.00,,,0.00,Rainwise IP-100,2013-07-21 20:51:00,
2013-07-21 16:56:00,75.0,56.0,30.06,North,360,5.0,5.0,51,0.00,,,0.00,Rainwise IP-100,2013-07-21 20:56:00,
2013-07-21 17:01:00,76.0,54.0,30.06,North,360,1.0,6.0,48,0.00,,,0.00,Rainwise IP-100,2013-07-21 21:01:00,
2013-07-21 17:06:00,77.0,55.0,30.06,NE,45,1.0,4.0,47,0.00,,,0.00,Rainwise IP-100,2013-07-21 21:06:00,
2013-07-21 17:11:00,76.0,53.0,30.05,East,90,6.0,6.0,44,0.00,,,0.00,Rainwise IP-100,2013-07-21 21:11:00,
2013-07-21 17:16:00,77.0,56.0,30.05,NNE,22,0.0,9.0,49,0.00,,,0.00,Rainwise IP-100,2013-07-21 21:16:00,
2013-07-21 17:21:00,76.0,53.0,30.05,NE,45,4.0,6.0,45,0.00,,,0.00,Rainwise IP-100,2013-07-21 21:21:00,
2013-07-21 17:26:00,77.0,53.0,30.05,North,360,1.0,4.0,43,0.00,,,0.00,Rainwise IP-100,2013-07-21 21:26:00,
2013-07-21 17:31:00,78.0,53.0,30.04,ENE,67,1.0,6.0,41,0.00,,,0.00,Rainwise IP-100,2013-07-21 21:31:00,
2013-07-21 17:36:00,78.0,55.0,30.04,NNW,337,2.0,6.0,45,0.00,,,0.00,Rainwise IP-100,2013-07-21 21:36:00,
2013-07-21 17:41:00,78.0,54.0,30.05,NE,45,2.0,5.0,43,0.00,,,0.00,Rainwise IP-100,2013-07-21 21:41:00,
2013-07-21 17:46:00,77.0,53.0,30.05,NE,45,2.0,5.0,44,0.00,,,0.00,Rainwise IP-100,2013-07-21 21:46:00,
2013-07-21 17:51:00,78.0,55.0,30.05,North,360,1.0,5.0,45,0.00,,,0.00,Rainwise IP-100,2013-07-21 21:51:00,
2013-07-21 17:56:00,78.0,54.0,30.05,NE,45,1.0,4.0,43,0.00,,,0.00,Rainwise IP-100,2013-07-21 21:56:00,
2013-07-21 18:01:00,77.0,54.0,30.05,NNW,337,5.0,7.0,46,0.00,,,0.00,Rainwise IP-100,2013-07-21 22:01:00,
2013-07-21 18:06:00,76.0,53.0,30.05,NE,45,4.0,6.0,45,0.00,,,0.00,Rainwise IP-100,2013-07-21 22:06:00,
2013-07-21 18:11:00,76.0,55.0,30.05,SE,135,0.0,6.0,49,0.00,,,0.00,Rainwise IP-100,2013-07-21 22:11:00,
2013-07-21 18:16:00,77.0,56.0,30.05,North,360,1.0,2.0,48,0.00,,,0.00,Rainwise IP-100,2013-07-21 22:16:00,
2013-07-21 18:21:00,77.0,56.0,30.05,NNE,22,1.0,6.0,48,0.00,,,0.00,Rainwise IP-100,2013-07-21 22:21:00,
2013-07-21 18:26:00,76.0,54.0,30.05,North,360,0.0,2.0,48,0.00,,,0.00,Rainwise IP-100,2013-07-21 22:26:00,
2013-07-21 18:31:00,77.0,55.0,30.05,North,360,1.0,2.0,47,0.00,,,0.00,Rainwise IP-100,2013-07-21 22:31:00,
2013-07-21 18:36:00,77.0,55.0,30.05,North,360,2.0,3.0,47,0.00,,,0.00,Rainwise IP-100,2013-07-21 22:36:00,
2013-07-21 18:41:00,77.0,57.0,30.05,NNW,337,2.0,4.0,50,0.00,,,0.00,Rainwise IP-100,2013-07-21 22:41:00,
2013-07-21 18:46:00,76.0,56.0,30.05,NNW,337,0.0,2.0,50,0.00,,,0.00,Rainwise IP-100,2013-07-21 22:46:00,
2013-07-21 18:51:00,73.0,54.0,30.05,NNW,337,6.0,7.0,51,0.00,,,0.00,Rainwise IP-100,2013-07-21 22:51:00,
2013-07-21 18:56:00,72.0,54.0,30.05,North,360,5.0,7.0,54,0.00,,,0.00,Rainwise IP-100,2013-07-21 22:56:00,
2013-07-21 19:01:00,71.0,54.0,30.07,NNW,337,4.0,8.0,56,0.00,,,0.00,Rainwise IP-100,2013-07-21 23:01:00,
2013-07-21 19:05:00,71.0,54.0,30.07,North,360,2.0,8.0,55,0.00,,,0.00,Rainwise IP-100,2013-07-21 23:05:00,
2013-07-21 19:10:00,72.0,56.0,30.07,North,360,1.0,5.0,58,0.00,,,0.00,Rainwise IP-100,2013-07-21 23:10:00,
2013-07-21 19:15:00,72.0,55.0,30.07,North,360,0.0,1.0,56,0.00,,,0.00,Rainwise IP-100,2013-07-21 23:15:00,
2013-07-21 19:20:00,72.0,55.0,30.07,NNE,22,1.0,2.0,56,0.00,,,0.00,Rainwise IP-100,2013-07-21 23:20:00,
2013-07-21 19:25:00,72.0,56.0,30.07,NNE,22,0.0,2.0,57,0.00,,,0.00,Rainwise IP-100,2013-07-21 23:25:00,
2013-07-21 19:30:00,72.0,56.0,30.07,North,360,0.0,3.0,57,0.00,,,0.00,Rainwise IP-100,2013-07-21 23:30:00,
2013-07-21 19:35:00,72.0,55.0,30.07,North,360,1.0,3.0,56,0.00,,,0.00,Rainwise IP-100,2013-07-21 23:35:00,
2013-07-21 19:40:00,72.0,56.0,30.07,North,360,1.0,2.0,57,0.00,,,0.00,Rainwise IP-100,2013-07-21 23:40:00,
2013-07-21 19:45:00,71.0,54.0,30.07,North,360,1.0,2.0,57,0.00,,,0.00,Rainwise IP-100,2013-07-21 23:45:00,
2013-07-21 19:50:00,70.0,55.0,30.08,North,360,0.0,2.0,59,0.00,,,0.00,Rainwise IP-100,2013-07-21 23:50:00,
2013-07-21 19:55:00,70.0,56.0,30.08,North,360,0.0,0.0,61,0.00,,,0.00,Rainwise IP-100,2013-07-21 23:55:00,
2013-07-21 20:00:00,69.0,54.0,30.09,North,360,0.0,1.0,61,0.00,,,0.00,Rainwise IP-100,2013-07-22 00:00:00,
2013-07-21 20:05:00,69.0,56.0,30.09,North,360,0.0,0.0,63,0.00,,,0.00,Rainwise IP-100,2013-07-22 00:05:00,
2013-07-21 20:10:00,68.0,56.0,30.09,North,360,0.0,0.0,66,0.00,,,0.00,Rainwise IP-100,2013-07-22 00:10:00,
2013-07-21 20:15:00,67.0,56.0,30.09,North,360,0.0,0.0,68,0.00,,,0.00,Rainwise IP-100,2013-07-22 00:15:00,
2013-07-21 20:20:00,66.0,57.0,30.09,North,360,0.0,0.0,74,0.00,,,0.00,Rainwise IP-100,2013-07-22 00:20:00,
2013-07-21 20:25:00,66.0,57.0,30.09,North,360,0.0,0.0,74,0.00,,,0.00,Rainwise IP-100,2013-07-22 00:25:00,
2013-07-21 20:30:00,65.0,57.0,30.10,North,360,0.0,0.0,76,0.00,,,0.00,Rainwise IP-100,2013-07-22 00:30:00,
2013-07-21 20:35:00,64.0,56.0,30.10,North,360,0.0,2.0,75,0.00,,,0.00,Rainwise IP-100,2013-07-22 00:35:00,
2013-07-21 20:40:00,64.0,57.0,30.11,North,360,0.0,0.0,79,0.00,,,0.00,Rainwise IP-100,2013-07-22 00:40:00,
2013-07-21 20:45:00,64.0,57.0,30.11,North,360,0.0,0.0,79,0.00,,,0.00,Rainwise IP-100,2013-07-22 00:45:00,
2013-07-21 20:50:00,63.0,56.0,30.11,North,360,0.0,0.0,80,0.00,,,0.00,Rainwise IP-100,2013-07-22 00:50:00,
2013-07-21 20:55:00,63.0,59.0,30.11,SE,135,1.0,5.0,86,0.00,,,0.00,Rainwise IP-100,2013-07-22 00:55:00,
2013-07-21 21:00:00,63.0,59.0,30.12,SE,135,1.0,3.0,88,0.00,,,0.00,Rainwise IP-100,2013-07-22 01:00:00,
2013-07-21 21:05:00,62.0,58.0,30.12,SE,135,2.0,3.0,88,0.00,,,0.00,Rainwise IP-100,2013-07-22 01:05:00,
2013-07-21 21:10:00,62.0,58.0,30.12,SE,135,4.0,4.0,87,0.00,,,0.00,Rainwise IP-100,2013-07-22 01:10:00,
2013-07-21 21:15:00,62.0,57.0,30.12,SE,135,2.0,5.0,86,0.00,,,0.00,Rainwise IP-100,2013-07-22 01:15:00,
2013-07-21 21:20:00,62.0,58.0,30.13,SE,135,2.0,4.0,87,0.00,,,0.00,Rainwise IP-100,2013-07-22 01:20:00,
2013-07-21 21:25:00,62.0,58.0,30.13,SE,135,0.0,2.0,87,0.00,,,0.00,Rainwise IP-100,2013-07-22 01:25:00,
2013-07-21 21:30:00,61.0,58.0,30.13,SE,135,0.0,0.0,90,0.00,,,0.00,Rainwise IP-100,2013-07-22 01:30:00,
2013-07-21 21:35:00,61.0,59.0,30.13,SE,135,0.0,0.0,93,0.00,,,0.00,Rainwise IP-100,2013-07-22 01:35:00,
2013-07-21 21:40:00,60.0,58.0,30.14,SE,135,0.0,2.0,94,0.00,,,0.00,Rainwise IP-100,2013-07-22 01:40:00,
2013-07-21 21:45:00,60.0,58.0,30.14,SE,135,4.0,4.0,95,0.00,,,0.00,Rainwise IP-100,2013-07-22 01:45:00,
2013-07-21 21:50:00,60.0,58.0,30.14,SE,135,2.0,4.0,94,0.00,,,0.00,Rainwise IP-100,2013-07-22 01:50:00,
2013-07-21 21:55:00,60.0,57.0,30.14,SE,135,4.0,4.0,93,0.00,,,0.00,Rainwise IP-100,2013-07-22 01:55:00,
2013-07-21 22:00:00,60.0,57.0,30.14,SSW,202,2.0,5.0,93,0.00,,,0.00,Rainwise IP-100,2013-07-22 02:00:00,
2013-07-21 22:05:00,60.0,58.0,30.14,South,180,4.0,4.0,95,0.00,,,0.00,Rainwise IP-100,2013-07-22 02:05:00,
2013-07-21 22:10:00,59.0,57.0,30.15,SSE,157,0.0,4.0,95,0.00,,,0.00,Rainwise IP-100,2013-07-22 02:10:00,
2013-07-21 22:15:00,59.0,57.0,30.15,SSE,157,3.0,3.0,96,0.00,,,0.00,Rainwise IP-100,2013-07-22 02:15:00,
2013-07-21 22:20:00,59.0,57.0,30.15,SSE,157,2.0,3.0,96,0.00,,,0.00,Rainwise IP-100,2013-07-22 02:20:00,
2013-07-21 22:25:00,59.0,58.0,30.15,SSE,157,0.0,3.0,97,0.00,,,0.00,Rainwise IP-100,2013-07-22 02:25:00,
2013-07-21 22:30:00,58.0,57.0,30.16,SSE,157,0.0,0.0,97,0.00,,,0.00,Rainwise IP-100,2013-07-22 02:30:00,
2013-07-21 22:35:00,58.0,57.0,30.16,SSE,157,0.0,1.0,98,0.00,,,0.00,Rainwise IP-100,2013-07-22 02:35:00,
2013-07-21 22:40:00,58.0,57.0,30.16,SSE,157,0.0,0.0,98,0.00,,,0.00,Rainwise IP-100,2013-07-22 02:40:00,
2013-07-21 22:45:00,58.0,57.0,30.16,SSE,157,1.0,2.0,98,0.00,,,0.00,Rainwise IP-100,2013-07-22 02:45:00,
2013-07-21 22:50:00,57.0,56.0,30.16,SSE,157,1.0,2.0,98,0.00,,,0.00,Rainwise IP-100,2013-07-22 02:50:00,
2013-07-21 22:55:00,58.0,57.0,30.16,SSE,157,5.0,5.0,98,0.00,,,0.00,Rainwise IP-100,2013-07-22 02:55:00,
2013-07-21 23:00:00,58.0,57.0,30.16,SSE,157,3.0,5.0,98,0.00,,,0.00,Rainwise IP-100,2013-07-22 03:00:00,
2013-07-21 23:05:00,58.0,57.0,30.16,SSE,157,1.0,4.0,98,0.00,,,0.00,Rainwise IP-100,2013-07-22 03:05:00,
2013-07-21 23:10:00,58.0,57.0,30.16,SSE,157,4.0,5.0,98,0.00,,,0.00,Rainwise IP-100,2013-07-22 03:10:00,
2013-07-21 23:15:00,57.0,56.0,30.16,SSE,157,3.0,4.0,98,0.00,,,0.00,Rainwise IP-100,2013-07-22 03:15:00,
2013-07-21 23:20:00,58.0,57.0,30.16,SSE,157,3.0,4.0,98,0.00,,,0.00,Rainwise IP-100,2013-07-22 03:20:00,
2013-07-21 23:25:00,57.0,56.0,30.16,SSE,157,0.0,4.0,98,0.00,,,0.00,Rainwise IP-100,2013-07-22 03:25:00,
2013-07-21 23:30:00,57.0,56.0,30.17,SSE,157,1.0,2.0,98,0.00,,,0.00,Rainwise IP-100,2013-07-22 03:30:00,
2013-07-21 23:35:00,57.0,56.0,30.17,SSE,157,0.0,2.0,98,0.00,,,0.00,Rainwise IP-100,2013-07-22 03:35:00,
2013-07-21 23:40:00,56.0,55.0,30.17,SSE,157,0.0,0.0,97,0.00,,,0.00,Rainwise IP-100,2013-07-22 03:40:00,
2013-07-21 23:45:00,56.0,55.0,30.17,SSE,157,3.0,4.0,97,0.00,,,0.00,Rainwise IP-100,2013-07-22 03:45:00,
2013-07-21 23:50:00,56.0,55.0,30.18,South,180,2.0,4.0,97,0.00,,,0.00,Rainwise IP-100,2013-07-22 03:50:00,
2013-07-21 23:55:00,56.0,55.0,30.18,South,180,1.0,3.0,97,0.00,,,0.00,Rainwise IP-100,2013-07-22 03:55:00,